EW9200 Weather Reports


Display with metric or nautical units.
time (UTC)temp
F
wind
direction
speed
MPH
gust
MPH
rain 1hr
in
rain 24hr
in
rain mn
in
humidity
%
barometer
mb
20260831092533 75 132 1.0 6.0 0.00 0.09 0.00 76 1014.0
20260831092031 75 260 3.0 6.0 0.00 0.09 0.00 77 1014.1
20260831091548 75 141 2.0 5.0 0.00 0.09 0.00 77 1014.1
20260831091034 75 180 2.0 5.0 0.00 0.09 0.00 77 1014.1
20260831090531 75 160 1.0 3.0 0.00 0.09 0.00 77 1014.2
20260831090059 75 222 2.0 5.0 0.00 0.09 0.00 77 1014.0
20260831085531 75 217 0.0 5.0 0.00 0.09 0.00 77 1014.1
20260831085030 75 129 1.0 4.0 0.00 0.09 0.00 77 1014.0
20260831084556 75 186 2.0 4.0 0.00 0.09 0.00 77 1014.1
20260831084029 75 150 1.0 4.0 0.00 0.09 0.00 78 1014.1
20260831083529 75 233 0.0 3.0 0.00 0.09 0.00 77 1014.1
20260831083046 75 201 2.0 6.0 0.00 0.09 0.00 78 1014.0
20260831082529 75 193 2.0 6.0 0.00 0.09 0.00 78 1014.0
20260831082029 75 164 1.0 6.0 0.00 0.09 0.00 79 1014.0
20260831081554 75 167 2.0 6.0 0.00 0.09 0.00 79 1014.1
20260831081032 75 224 1.0 5.0 0.00 0.09 0.00 79 1014.0
20260831080529 75 198 1.0 5.0 0.00 0.09 0.00 80 1013.9
20260831080047 75 156 1.0 6.0 0.00 0.09 0.00 80 1014.1
20260831075530 75 229 2.0 6.0 0.00 0.09 0.00 80 1014.1
20260831075030 75 158 2.0 6.0 0.00 0.09 0.00 79 1013.9
20260831074550 75 126 2.0 5.0 0.00 0.09 0.00 79 1014.0
20260831074031 75 153 2.0 6.0 0.00 0.09 0.00 79 1014.0
20260831073530 75 198 2.0 7.0 0.00 0.09 0.00 79 1014.1
20260831073055 76 134 3.0 7.0 0.00 0.09 0.00 78 1014.1
20260831072530 76 158 3.0 7.0 0.00 0.09 0.00 78 1014.0
20260831072030 76 154 3.0 5.0 0.00 0.09 0.00 78 1014.0
20260831071553 76 243 2.0 4.0 0.00 0.09 0.00 78 1014.1
20260831071029 76 226 1.0 5.0 0.00 0.09 0.00 78 1014.1
20260831070532 76 181 2.0 5.0 0.00 0.09 0.00 79 1014.1
20260831070048 76 258 2.0 6.0 0.00 0.09 0.00 79 1014.1
20260831065530 76 163 2.0 6.0 0.00 0.09 0.00 80 1014.1
20260831065030 76 133 2.0 4.0 0.00 0.09 0.00 81 1014.1
20260831064551 75 165 1.0 5.0 0.00 0.09 0.00 81 1014.1
20260831064027 76 153 2.0 5.0 0.00 0.09 0.00 82 1014.2
20260831063529 75 131 2.0 6.0 0.00 0.09 0.00 82 1014.2
20260831063045 75 217 2.0 6.0 0.00 0.09 0.00 83 1014.2
20260831062527 75 169 2.0 5.0 0.00 0.09 0.00 84 1014.1
20260831062030 75 182 2.0 5.0 0.00 0.09 0.00 84 1014.2
20260831061554 75 198 2.0 5.0 0.00 0.09 0.00 85 1014.1
20260831061028 75 156 2.0 5.0 0.00 0.09 0.00 85 1014.1
20260831060529 75 194 2.0 4.0 0.00 0.09 0.00 86 1014.1
20260831060049 75 186 1.0 5.0 0.00 0.09 0.00 87 1014.3
20260831055529 75 206 1.0 5.0 0.00 0.09 0.00 87 1014.2
20260831055034 75 165 0.0 4.0 0.00 0.09 0.00 87 1014.2
20260831054600 75 165 1.0 4.0 0.00 0.09 0.00 87 1014.0
20260831054031 75 212 2.0 3.0 0.00 0.09 0.00 86 1014.0
20260831053529 75 177 1.0 3.0 0.00 0.09 0.00 86 1014.1
20260831053043 75 196 0.0 3.0 0.00 0.09 0.00 86 1014.3
20260831052529 75 128 1.0 3.0 0.00 0.09 0.00 86 1014.3
20260831052028 76 142 1.0 5.0 0.00 0.09 0.00 85 1014.4
20260831051553 76 215 1.0 5.0 0.00 0.09 0.00 85 1014.4
20260831051029 76 208 2.0 5.0 0.00 0.09 0.00 85 1014.5
20260831050530 76 146 2.0 5.0 0.00 0.09 0.00 85 1014.5
20260831050049 76 140 1.0 5.0 0.00 0.09 0.00 86 1014.5
20260831045528 76 220 2.0 6.0 0.00 0.09 0.09 86 1014.6
20260831045030 75 174 2.0 6.0 0.00 0.09 0.09 87 1014.4
20260831044601 75 221 2.0 6.0 0.00 0.09 0.09 88 1014.4
20260831044030 75 115 2.0 5.0 0.00 0.09 0.09 88 1014.5
20260831043530 75 175 2.0 5.0 0.00 0.09 0.09 89 1014.5
20260831043046 75 203 1.0 4.0 0.00 0.09 0.09 89 1014.5
20260831042530 75 159 2.0 4.0 0.00 0.09 0.09 90 1014.7
20260831042029 75 157 1.0 4.0 0.00 0.09 0.09 91 1014.7
20260831041612 75 214 1.0 4.0 0.00 0.09 0.09 91 1014.8
20260831041029 74 227 1.0 4.0 0.00 0.09 0.09 92 1014.8
20260831040529 74 152 0.0 2.0 0.00 0.09 0.09 92 1014.8
20260831040047 75 0 1.0 2.0 0.00 0.09 0.09 93 1015.0
20260831035527 74 197 1.0 2.0 0.00 0.09 0.09 93 1014.9
20260831035028 74 0 0.0 1.0 0.00 0.09 0.09 94 1015.0
20260831034545 75 0 0.0 1.0 0.00 0.09 0.09 94 1015.1
20260831034032 75 0 0.0 1.0 0.00 0.09 0.09 94 1015.2
20260831033527 75 0 0.0 2.0 0.00 0.09 0.09 93 1015.1
20260831033047 75 0 0.0 2.0 0.00 0.09 0.09 93 1015.3
20260831032532 75 156 0.0 1.0 0.00 0.09 0.09 94 1015.3
20260831032028 74 156 0.0 0.0 0.00 0.09 0.09 94 1015.4
20260831031552 74 156 0.0 2.0 0.01 0.09 0.09 95 1015.6
20260831031028 74 0 0.0 5.0 0.01 0.09 0.09 95 1015.6
20260831030527 74 214 0.0 5.0 0.01 0.09 0.09 96 1015.6
20260831030052 74 232 1.0 5.0 0.01 0.09 0.09 96 1015.4
20260831025529 74 210 2.0 4.0 0.01 0.09 0.09 96 1015.3
20260831025030 74 229 2.0 4.0 0.01 0.09 0.09 96 1015.4
20260831024546 74 227 2.0 4.0 0.01 0.09 0.09 96 1015.3
20260831024030 74 184 0.0 3.0 0.01 0.09 0.09 97 1015.4
20260831023530 74 148 1.0 3.0 0.01 0.09 0.09 97 1015.4
20260831023047 74 222 0.0 1.0 0.02 0.09 0.09 97 1015.5
20260831022529 74 0 0.0 0.0 0.02 0.09 0.09 97 1015.8
20260831022030 74 0 0.0 0.0 0.02 0.09 0.09 97 1016.0
20260831021554 74 0 0.0 0.0 0.01 0.08 0.08 96 1015.8
20260831021029 74 0 0.0 0.0 0.01 0.08 0.08 96 1015.7
20260831020530 74 0 0.0 0.0 0.01 0.08 0.08 96 1015.8
20260831020048 74 0 0.0 1.0 0.01 0.08 0.08 95 1015.6
20260831015530 74 0 0.0 2.0 0.01 0.08 0.08 95 1015.6
20260831015026 74 0 0.0 2.0 0.01 0.08 0.08 95 1015.4
20260831014546 74 213 1.0 2.0 0.01 0.08 0.08 95 1015.3
20260831014029 74 206 0.0 2.0 0.01 0.08 0.08 95 1015.6
20260831013529 74 0 0.0 2.0 0.01 0.08 0.08 95 1015.7
20260831013106 74 180 1.0 2.0 0.00 0.07 0.07 95 1015.4
20260831012527 74 222 0.0 1.0 0.00 0.07 0.07 95 1015.7
20260831012026 74 0 0.0 0.0 0.00 0.07 0.07 95 1015.6
20260831011551 74 0 0.0 0.0 0.00 0.07 0.07 95 1015.5
20260831011029 74 0 0.0 0.0 0.00 0.07 0.07 94 1015.1
20260831010529 75 0 0.0 1.0 0.00 0.07 0.07 94 1015.1
20260831010048 75 0 0.0 2.0 0.00 0.07 0.07 94 1015.1
20260831005528 75 213 0.0 2.0 0.00 0.07 0.07 94 1015.0
20260831005028 74 0 0.0 2.0 0.00 0.07 0.07 94 1014.8
20260831004546 75 156 0.0 0.0 0.00 0.07 0.07 94 1014.8
20260831004030 75 0 0.0 2.0 0.00 0.07 0.07 93 1014.8
20260831003530 75 155 0.0 5.0 0.00 0.07 0.07 93 1014.7
20260831003044 75 148 2.0 5.0 0.00 0.07 0.07 93 1014.5
20260831002527 75 200 1.0 3.0 0.00 0.07 0.07 93 1014.6
20260831002029 75 139 0.0 2.0 0.00 0.07 0.07 93 1015.0
20260831001541 75 121 0.0 1.0 0.00 0.07 0.07 93 1015.2
20260831001029 75 84 0.0 1.0 0.00 0.07 0.07 93 1015.3
20260831000527 75 0 0.0 0.0 0.00 0.07 0.07 93 1015.6
20260831000047 75 0 0.0 1.0 0.00 0.07 0.07 93 1015.6
20260830235525 75 0 0.0 2.0 0.00 0.07 0.07 93 1015.7
20260830235028 75 0 0.0 2.0 0.00 0.07 0.07 92 1015.6
20260830234548 75 0 0.0 2.0 0.00 0.07 0.07 92 1015.3
20260830234025 75 0 0.0 2.0 0.00 0.07 0.07 92 1015.1
20260830233537 75 0 0.0 2.0 0.00 0.07 0.07 93 1015.1
20260830233054 75 0 0.0 2.0 0.00 0.07 0.07 92 1015.3
20260830232529 76 0 0.0 3.0 0.00 0.07 0.07 92 1015.5
20260830232029 76 215 0.0 4.0 0.00 0.07 0.07 92 1015.2
20260830231558 76 162 2.0 4.0 0.00 0.07 0.07 91 1015.4
20260830231030 76 212 1.0 4.0 0.00 0.07 0.07 91 1015.3
20260830230529 76 152 0.0 1.0 0.00 0.07 0.07 90 1015.5
20260830230055 77 0 0.0 0.0 0.00 0.07 0.07 89 1015.7
20260830225527 77 0 0.0 0.0 0.00 0.07 0.07 88 1015.9
20260830225027 77 0 0.0 0.0 0.00 0.07 0.07 88 1015.8
20260830224555 77 0 0.0 0.0 0.00 0.07 0.07 88 1015.8
20260830224027 78 0 0.0 0.0 0.00 0.07 0.07 87 1015.9
20260830223530 78 0 0.0 0.0 0.00 0.07 0.07 87 1015.8
20260830223104 78 0 0.0 0.0 0.00 0.07 0.07 86 1016.0
20260830222528 78 0 0.0 0.0 0.00 0.07 0.07 86 1016.0
20260830222030 78 0 0.0 0.0 0.00 0.07 0.07 86 1015.8
20260830221603 78 0 0.0 0.0 0.00 0.07 0.07 85 1015.7
20260830221027 78 0 0.0 0.0 0.00 0.07 0.07 85 1015.9
20260830220529 79 0 0.0 0.0 0.00 0.07 0.07 84 1015.7
20260830220058 79 0 0.0 0.0 0.00 0.07 0.07 84 1015.5
20260830215529 79 0 0.0 1.0 0.00 0.07 0.07 83 1015.5
20260830215032 79 0 0.0 1.0 0.00 0.07 0.07 83 1015.4
20260830214556 79 0 0.0 1.0 0.00 0.07 0.07 83 1015.4
20260830214026 79 0 0.0 1.0 0.00 0.07 0.07 82 1015.3
20260830213526 79 131 0.0 2.0 0.00 0.07 0.07 82 1015.3
20260830213045 79 0 0.0 2.0 0.00 0.07 0.07 82 1015.6
20260830212529 79 0 0.0 2.0 0.00 0.07 0.07 81 1015.6
20260830212029 79 147 0.0 3.0 0.00 0.07 0.07 81 1015.8
20260830211545 79 153 1.0 3.0 0.00 0.07 0.07 80 1015.8
20260830211026 80 129 1.0 3.0 0.00 0.07 0.07 80 1016.0
20260830210529 80 259 1.0 4.0 0.00 0.07 0.07 78 1016.0
20260830210058 80 236 1.0 5.0 0.00 0.07 0.07 79 1016.0
20260830205528 81 238 1.0 5.0 0.00 0.07 0.07 78 1016.1
20260830205029 81 169 1.0 5.0 0.00 0.07 0.07 79 1015.9
20260830204548 81 184 1.0 5.0 0.00 0.07 0.07 79 1015.9
20260830204029 80 158 2.0 5.0 0.00 0.07 0.07 78 1015.9
20260830203529 80 226 0.0 2.0 0.00 0.07 0.07 78 1016.0
20260830203102 80 203 0.0 2.0 0.00 0.07 0.07 80 1015.9
20260830202527 79 0 0.0 4.0 0.00 0.07 0.07 81 1015.9
20260830202029 78 165 1.0 4.0 0.00 0.07 0.07 82 1015.8
20260830201543 78 206 1.0 4.0 0.00 0.07 0.07 83 1015.9
20260830201026 78 144 0.0 3.0 0.00 0.07 0.07 83 1015.9
20260830200527 78 148 0.0 3.0 0.00 0.07 0.07 82 1016.0
20260830200048 78 221 0.0 3.0 0.00 0.07 0.07 82 1016.4
20260830195533 78 0 0.0 2.0 0.00 0.07 0.07 82 1016.5
20260830195027 78 0 0.0 2.0 0.00 0.07 0.07 81 1016.3
20260830194555 78 0 0.0 4.0 0.00 0.07 0.07 81 1016.3
20260830194028 78 63 1.0 4.0 0.00 0.07 0.07 81 1016.2
20260830193527 78 236 1.0 7.0 0.00 0.07 0.07 81 1016.2
20260830193050 78 256 2.0 8.0 0.00 0.07 0.07 82 1015.8
20260830192528 78 213 3.0 8.0 0.00 0.07 0.07 81 1015.8
20260830192026 78 215 2.0 6.0 0.00 0.07 0.07 81 1015.6
20260830191552 78 169 1.0 6.0 0.00 0.07 0.07 80 1015.7
20260830191026 78 225 2.0 7.0 0.00 0.07 0.07 80 1015.8
20260830190528 78 235 2.0 7.0 0.00 0.07 0.07 80 1015.7
20260830190053 78 160 2.0 7.0 0.00 0.07 0.07 79 1015.7
20260830185530 78 204 2.0 10.0 0.00 0.07 0.07 79 1015.9
20260830185026 78 221 2.0 10.0 0.00 0.07 0.07 78 1015.6
20260830184552 79 166 4.0 8.0 0.00 0.07 0.07 77 1015.4
20260830184030 79 145 4.0 8.0 0.00 0.07 0.07 77 1015.4
20260830183529 80 207 3.0 8.0 0.00 0.07 0.07 77 1015.2
20260830183046 80 240 3.0 8.0 0.00 0.07 0.07 79 1015.1
20260830182530 80 224 3.0 11.0 0.00 0.07 0.07 77 1015.1
20260830182031 80 236 4.0 11.0 0.00 0.07 0.07 78 1015.0
20260830181547 80 275 4.0 12.0 0.00 0.07 0.07 78 1014.9
20260830181027 80 196 4.0 12.0 0.00 0.07 0.07 79 1014.9
20260830180529 80 192 4.0 12.0 0.00 0.07 0.07 79 1014.8
20260830180055 80 203 5.0 11.0 0.00 0.07 0.07 79 1014.8
20260830175529 79 164 5.0 11.0 0.00 0.07 0.07 79 1014.8
20260830175026 79 175 3.0 7.0 0.00 0.07 0.07 81 1014.9
20260830174600 79 143 3.0 7.0 0.00 0.07 0.07 81 1015.1
20260830174031 78 176 4.0 9.0 0.00 0.07 0.07 81 1015.1
20260830173527 78 246 3.0 9.0 0.00 0.07 0.07 82 1015.1
20260830173056 77 154 4.0 9.0 0.00 0.07 0.07 84 1015.0
20260830172528 77 131 3.0 9.0 0.00 0.07 0.07 83 1015.3
20260830172029 76 174 4.0 9.0 0.00 0.07 0.07 83 1015.1
20260830171545 76 116 4.0 9.0 0.00 0.07 0.07 83 1015.3
20260830171030 76 140 3.0 14.0 0.00 0.07 0.07 85 1015.2
20260830170528 75 157 4.0 14.0 0.00 0.07 0.07 85 1015.1
20260830170047 75 199 5.0 18.0 0.00 0.07 0.07 85 1015.0
20260830165527 75 210 5.0 18.0 0.00 0.07 0.07 85 1015.2
20260830165027 74 179 5.0 14.0 0.00 0.07 0.07 85 1015.1
20260830164548 75 227 5.0 11.0 0.00 0.07 0.07 84 1015.5
20260830164029 75 122 4.0 11.0 0.00 0.07 0.07 84 1015.5
20260830163527 75 94 5.0 11.0 0.00 0.07 0.07 83 1015.6
20260830163049 75 274 3.0 12.0 0.00 0.07 0.07 83 1015.7
20260830162528 75 153 5.0 12.0 0.00 0.07 0.07 83 1015.7
20260830162029 75 167 5.0 11.0 0.00 0.07 0.07 82 1015.8
20260830161544 75 213 3.0 8.0 0.01 0.07 0.07 84 1015.7
20260830161029 75 136 3.0 8.0 0.01 0.07 0.07 88 1015.8
20260830160529 73 238 4.0 8.0 0.01 0.07 0.07 88 1015.6
20260830160057 73 170 3.0 7.0 0.01 0.07 0.07 89 1015.7
20260830155529 72 204 3.0 7.0 0.01 0.07 0.07 88 1015.7
20260830155029 72 202 2.0 9.0 0.01 0.07 0.07 89 1015.6
20260830154550 72 243 3.0 10.0 0.01 0.07 0.07 90 1015.5
20260830154028 71 221 4.0 10.0 0.01 0.07 0.07 91 1015.5
20260830153529 71 185 4.0 10.0 0.01 0.07 0.07 92 1015.4
20260830153048 71 207 4.0 13.0 0.01 0.07 0.07 92 1015.3
20260830152528 70 214 5.0 13.0 0.01 0.07 0.07 92 1015.0
20260830152027 70 141 5.0 13.0 0.01 0.07 0.07 93 1014.8
20260830151554 70 165 5.0 9.0 0.00 0.06 0.06 94 1014.9
20260830151033 70 160 4.0 13.0 0.00 0.06 0.06 97 1015.3
20260830150526 70 183 5.0 13.0 0.00 0.06 0.06 99 1014.6
20260830150049 70 209 4.0 8.0 0.00 0.06 0.06 99 1015.1
20260830145529 69 231 3.0 7.0 0.00 0.06 0.06 100 1015.1
20260830145027 69 222 3.0 7.0 0.00 0.06 0.06 99 1015.3
20260830144545 69 143 3.0 7.0 0.01 0.06 0.06 100 1015.7
20260830144027 69 214 2.0 6.0 0.02 0.06 0.06 100 1015.8
20260830143533 68 214 2.0 6.0 0.02 0.06 0.06 100 1016.0
20260830143103 68 188 3.0 6.0 0.02 0.06 0.06 100 1015.7
20260830142529 68 193 2.0 6.0 0.02 0.06 0.06 100 1015.6
20260830142030 68 168 2.0 10.0 0.02 0.06 0.06 100 1015.8
20260830141556 67 167 2.0 10.0 0.02 0.06 0.06 100 1015.8
20260830141028 67 172 3.0 7.0 0.02 0.06 0.06 100 1015.8
20260830140526 67 219 2.0 6.0 0.02 0.06 0.06 99 1015.7
20260830140051 67 212 3.0 6.0 0.03 0.06 0.06 99 1015.8
20260830135528 67 159 3.0 6.0 0.04 0.06 0.06 99 1015.9
20260830135029 67 141 2.0 5.0 0.04 0.06 0.06 99 1015.9
20260830134545 67 175 2.0 4.0 0.04 0.05 0.05 99 1016.2
20260830134027 67 165 2.0 4.0 0.03 0.04 0.04 99 1016.3
20260830133528 67 148 2.0 5.0 0.03 0.04 0.04 99 1016.4
20260830133106 67 141 2.0 5.0 0.04 0.04 0.04 98 1016.5
20260830132533 67 169 1.0 6.0 0.04 0.04 0.04 98 1016.7
20260830132028 67 181 3.0 6.0 0.04 0.04 0.04 97 1016.8
20260830131553 67 231 3.0 6.0 0.04 0.04 0.04 97 1016.8
20260830131027 67 179 2.0 4.0 0.04 0.04 0.04 96 1016.8
20260830130532 67 165 2.0 3.0 0.04 0.04 0.04 95 1017.0
20260830130048 68 166 0.0 2.0 0.03 0.03 0.03 94 1017.3
20260830125526 68 0 0.0 1.0 0.02 0.02 0.02 93 1017.3
20260830125026 68 0 0.0 2.0 0.02 0.02 0.02 93 1017.2
20260830124552 68 0 0.0 3.0 0.01 0.01 0.01 93 1017.1
20260830124029 68 184 0.0 3.0 0.01 0.01 0.01 92 1017.1
20260830123527 68 173 1.0 3.0 0.01 0.01 0.01 92 1017.1
20260830123042 68 0 0.0 3.0 0.00 0.00 0.00 92 1017.1
20260830122529 68 159 1.0 3.0 0.00 0.00 0.00 91 1016.9
20260830122032 68 0 1.0 3.0 0.00 0.00 0.00 91 1017.0
20260830121548 69 0 0.0 0.0 0.00 0.00 0.00 91 1017.1
20260830121028 69 0 0.0 1.0 0.00 0.00 0.00 91 1017.2
20260830120526 69 0 0.0 1.0 0.00 0.00 0.00 90 1017.0
20260830120047 69 173 0.0 1.0 0.00 0.00 0.00 90 1016.7
20260830115529 69 141 0.0 1.0 0.00 0.00 0.00 89 1016.6
20260830115026 69 148 0.0 1.0 0.00 0.00 0.00 89 1016.4
20260830114607 69 0 0.0 1.0 0.00 0.00 0.00 88 1016.4
20260830114028 69 148 0.0 3.0 0.00 0.00 0.00 88 1016.3
20260830113527 69 0 1.0 4.0 0.00 0.00 0.00 88 1016.1
20260830113051 70 134 1.0 4.0 0.00 0.00 0.00 88 1016.0
20260830112529 70 231 1.0 4.0 0.00 0.00 0.00 87 1015.8
20260830112028 70 214 2.0 4.0 0.00 0.00 0.00 87 1015.7
20260830111548 70 217 1.0 5.0 0.00 0.00 0.00 87 1015.5
20260830111029 70 238 2.0 5.0 0.00 0.00 0.00 86 1015.4
20260830110527 70 220 2.0 6.0 0.00 0.00 0.00 86 1015.4
20260830110046 70 184 2.0 7.0 0.00 0.00 0.00 85 1015.5
20260830105529 70 131 3.0 7.0 0.00 0.00 0.00 85 1015.4
20260830105032 70 154 2.0 7.0 0.00 0.00 0.00 84 1015.4
20260830104556 71 210 2.0 7.0 0.00 0.00 0.00 84 1015.4
20260830104030 71 68 2.0 9.0 0.00 0.00 0.00 83 1015.3
20260830103531 71 178 2.0 9.0 0.00 0.00 0.00 83 1015.2
20260830103049 71 151 2.0 7.0 0.00 0.00 0.00 82 1015.1
20260830102530 71 127 2.0 6.0 0.00 0.00 0.00 82 1015.1
20260830102030 71 120 3.0 6.0 0.00 0.00 0.00 82 1015.2
20260830101550 71 126 2.0 5.0 0.00 0.00 0.00 81 1015.0
20260830101030 71 191 2.0 6.0 0.00 0.00 0.00 81 1015.0
20260830100530 71 228 2.0 6.0 0.00 0.00 0.00 81 1015.0
20260830100043 71 217 2.0 7.0 0.00 0.00 0.00 81 1014.9
20260830095530 71 167 2.0 7.0 0.00 0.00 0.00 81 1015.1
20260830095030 71 130 2.0 7.0 0.00 0.00 0.00 81 1015.1
20260830094553 71 193 2.0 4.0 0.00 0.00 0.00 81 1015.0
20260830094030 71 157 1.0 6.0 0.00 0.00 0.00 81 1015.2
20260830093530 71 157 2.0 6.0 0.00 0.00 0.00 81 1015.2
20260830093045 71 132 1.0 5.0 0.00 0.00 0.00 80 1015.1